Weather History for CWQS - February, 2013

Change the Weather History Date:

Monday, February 25, 2013

  Actual Average Record
Temperature  
Mean Temperature 40 °F -  
Max Temperature 43 °F - - ()
Min Temperature 37 °F - - ()
Degree Days  
Heating Degree Days 25    
Moisture  
Dew Point 38 °F    
Average Humidity 90    
Maximum Humidity 95    
Minimum Humidity 86    
Precipitation  
Precipitation 0.02 in - - ()
Sea Level Pressure  
Sea Level Pressure 29.94 in    
Wind  
Wind Speed 14 mph ()    
Max Wind Speed 38 mph    
Max Gust Speed 48 mph    
T = Trace of Precipitation, MM = Missing Value Source: Averaged Metar Reports

Daily Weather History Graph

Daily Weather History Graph

Search for Another Location

Airport or City:

Trip Planner

Search our weather history database for the weather conditions in past years. The results will help you decide how hot, cold, wet, or windy it might be!

Date:

Astronomy

Feb. 25, 2013 Rise Set
Actual Time 7:46 AM PST 6:22 PM PST
Civil Twilight 7:11 AM PST 6:57 PM PST
Nautical Twilight 6:31 AM PST 7:37 PM PST
Astronomical Twilight 5:51 AM PST 8:18 PM PST
Moon 6:53 PM PST (2/25) 7:14 AM PST (2/25)
Length of Visible Light 11h 46m
Length of Day
10h 35m
Full, 100% of the Moon is Illuminated
Feb 25
Full
Feb 25
Full
Mar 4
Last Quarter
Mar 11
New
Mar 19
First Quarter

Hourly Weather History & Observations

Time (PST) Temp. Windchill Dew Point Humidity Pressure Visibility Wind Dir Wind Speed Gust Speed Precip Events Conditions
12:00 AM 41.0 °F 31.9 °F - N/A% 29.86 in - North 19.6 mph - N/A   Unknown
1:00 AM 41 °F - 39 °F 92% 29.85 in - North 18.4 mph - -  
1:00 AM 40.8 °F 32.0 °F 39.4 °F 95% 29.85 in - North 18.4 mph - N/A   Unknown
2:00 AM 41.0 °F 33.1 °F 37.6 °F 88% 29.86 in - North 15.0 mph - N/A   Unknown
3:00 AM 41.0 °F 33.5 °F 37.2 °F 86% 29.88 in - NNW 13.8 mph - N/A   Unknown
4:00 AM 41 °F - 39 °F 89% 29.89 in - NNW 12.7 mph - -  
4:00 AM 41.4 °F 34.3 °F 38.8 °F 91% 29.89 in - NNW 12.7 mph - N/A   Unknown
5:00 AM 39.0 °F 31.8 °F - N/A% 29.91 in - NNW 11.5 mph - 0.01 in   Unknown
6:00 AM 41.0 °F 33.1 °F - N/A% 29.93 in - NNW 15.0 mph - N/A   Unknown
7:00 AM 41 °F - - % 29.95 in - NW 12.7 mph - -  
7:00 AM 40.8 °F 33.7 °F - N/A% 29.95 in - NNW 12.7 mph - 0.01 in   Unknown
8:00 AM 39.7 °F 31.2 °F - N/A% 29.96 in - NW 16.1 mph 24.2 mph N/A   Unknown
9:00 AM 41.2 °F 33.7 °F - N/A% 29.98 in - NW 13.8 mph - N/A   Unknown
10:00 AM 41 °F - - % 30.00 in - WNW 16.1 mph - -  
10:00 AM 40.6 °F 32.3 °F - N/A% 30.00 in - WNW 16.1 mph - N/A   Unknown
11:00 AM 41.7 °F 38.8 °F - N/A% 30.01 in - WNW 4.6 mph - N/A   Unknown
12:00 PM 41.4 °F 39.4 °F - N/A% 30.03 in - WNW 3.5 mph - 0.01 in   Unknown
1:00 PM 42 °F - - % 30.04 in - West 6.9 mph - -  
1:00 PM 42.3 °F 37.9 °F - N/A% 30.04 in - West 6.9 mph - N/A   Unknown
2:00 PM 42.4 °F 37.5 °F - N/A% 30.04 in - WSW 8.1 mph - N/A   Unknown
3:00 PM 41.2 °F 37.3 °F - N/A% 30.02 in - SE 5.8 mph - N/A   Unknown
4:00 PM 43 °F - - % 30.00 in - SSW 13.8 mph - -  
4:00 PM 42.6 °F 35.6 °F - N/A% 30.00 in - SSW 13.8 mph - N/A   Unknown
5:00 PM 42.3 °F 33.6 °F - N/A% 29.99 in - South 19.6 mph 26.5 mph N/A   Unknown
6:00 PM 42.1 °F 32.8 °F - N/A% 29.98 in - SSW 21.9 mph - N/A   Unknown
7:00 PM 42 °F - - % 29.93 in - South 13.8 mph - -  
7:00 PM 42.3 °F 35.1 °F - N/A% 29.93 in - South 13.8 mph 20.7 mph N/A   Unknown
8:00 PM 42.1 °F 32.1 °F - N/A% 29.88 in - South 25.3 mph 35.7 mph N/A   Unknown
9:00 PM 42.4 °F 33.5 °F - N/A% 29.88 in - South 20.7 mph 27.6 mph N/A   Unknown
10:00 PM 42 °F - - % 29.84 in - South 33.4 mph - -  
10:00 PM 42.3 °F 31.0 °F - N/A% 29.84 in - South 33.4 mph 44.9 mph N/A   Unknown
11:00 PM 41.7 °F 29.6 °F - N/A% 29.81 in - South 38.0 mph 48.3 mph N/A   Unknown